Location: PSU-Greenbush Astrophysical Observatory
(37.5140°N, 94.9880°W)
Time: 21:40:38
(UTC-06:00)

Altair - Pass Details

Date: 30 January 2020
Orbit: 1502 x 1682 km, 47.2° (Epoch: 18 February)

Event Time Altitude Azimuth Distance (km) Brightness Sun altitude
Rises 09:39:52 0° 273° (W) 4,882 9.7 21.4°
Reaches altitude 10° 09:43:10 10° 278° (W) 3,912 9.3 21.8°
Maximum altitude 09:52:54 50° 352° (N) 2,053 8.1 23.2°
Drops below altitude 10° 10:02:43 10° 67° (ENE) 3,938 9.9 24.4°
Sets 10:06:03 0° 73° (ENE) 4,916 10.4 24.9°
